This demonstration page uses our WeatherBlox Daily Observations layout. Learn more.

Left ArrowRight Arrow

Hourly Observations for December 29, 2016

Temp ( °F °C ) Dew Point ( °F °C ) Humidity (%) Winds ( mph kmh ) Pressure ( in mb ) Visibility ( mi km ) Precip ( " mm )
12:15 am 00:15 Cloudy 39 4 36 2 87 87 W 12 19 29.83 1010 10 16 N/A
12:34 am 00:34 Mostly Cloudy 39 4 36 2 87 87 W 10 17 29.83 1010 10 16 N/A
12:54 am 00:54 Partly Cloudy 39 4 36 2 87 87 W 14 22 29.83 1010 10 16 N/A
1:14 am 01:14 Mostly Cloudy 39 4 34 1 81 81 W 15 24 29.85 1011 10 16 N/A
1:34 am 01:34 Cloudy 39 4 34 1 81 81 W 15 24 29.85 1011 10 16 N/A
1:55 am 01:55 Cloudy 37 3 32 undefined 81 81 W 13 20 29.85 1011 10 16 N/A
2:14 am 02:14 Mostly Cloudy 37 3 32 undefined 81 81 WNW 13 20 29.83 1010 10 16 N/A
2:34 am 02:34 Partly Cloudy 36 2 30 -1 81 81 W 13 20 29.85 1011 10 16 N/A
2:54 am 02:54 Clear 36 2 30 -1 81 81 W 15 24 29.85 1011 10 16 N/A
3:14 am 03:14 Clear 36 2 30 -1 81 81 W 21 33 29.88 1012 10 16 N/A
3:35 am 03:35 Clear 36 2 28 -2 75 75 W 18 30 29.88 1012 10 16 N/A
3:54 am 03:54 Clear 34 1 28 -2 81 81 W 16 26 29.91 1013 10 16 N/A
4:15 am 04:15 Clear 34 1 28 -2 81 81 W 14 22 29.88 1012 10 16 N/A
4:34 am 04:34 Clear 34 1 28 -2 81 81 W 14 22 29.91 1013 10 16 N/A
4:54 am 04:54 Clear 34 1 28 -2 81 81 W 16 26 29.88 1012 10 16 N/A
5:15 am 05:15 Clear 34 1 27 -3 75 75 W 14 22 29.91 1013 10 16 N/A
5:34 am 05:34 Clear 34 1 27 -3 75 75 W 13 20 29.91 1013 10 16 N/A
5:54 am 05:54 Clear 32 undefined 27 -3 80 80 W 14 22 29.91 1013 10 16 N/A
6:14 am 06:14 Clear 32 undefined 27 -3 80 80 W 15 24 29.91 1013 10 16 N/A
6:35 am 06:35 Clear 32 undefined 27 -3 80 80 W 10 17 29.91 1013 10 16 N/A
6:54 am 06:54 Clear 32 undefined 27 -3 80 80 W 13 20 29.94 1014 10 16 N/A
7:34 am 07:34 Clear 32 undefined 27 -3 80 80 W 13 20 29.94 1014 10 16 N/A
7:55 am 07:55 Clear 32 undefined 27 -3 80 80 W 14 22 29.94 1014 10 16 N/A
8:14 am 08:14 Sunny 32 undefined 27 -3 80 80 W 15 24 29.94 1014 10 16 N/A
8:34 am 08:34 Sunny 32 undefined 27 -3 80 80 W 13 20 29.94 1014 10 16 N/A
8:54 am 08:54 Partly Cloudy 34 1 27 -3 75 75 W 17 28 29.97 1015 10 16 N/A
9:14 am 09:14 Mostly Cloudy 34 1 27 -3 75 75 W 15 24 29.97 1015 10 16 N/A
9:35 am 09:35 Mostly Cloudy 34 1 27 -3 75 75 W 22 35 29.97 1015 10 16 N/A
9:54 am 09:54 Cloudy 34 1 27 -3 75 75 W 20 31 29.97 1015 10 16 N/A
10:15 am 10:15 Mostly Cloudy 36 2 27 -3 70 70 W 17 28 29.97 1015 10 16 N/A
10:34 am 10:34 Partly Cloudy 34 1 27 -3 75 75 W 16 26 30.00 1016 10 16 N/A
10:54 am 10:54 Sunny 36 2 28 -2 75 75 W 20 31 30.00 1016 10 16 N/A
11:15 am 11:15 Sunny 37 3 28 -2 70 70 W 18 30 29.97 1015 10 16 N/A
11:34 am 11:34 Sunny 37 3 28 -2 70 70 W 20 31 29.97 1015 10 16 N/A
11:54 am 11:54 Sunny 39 4 28 -2 65 65 W 21 33 29.94 1014 10 16 N/A
12:14 pm 12:14 Sunny 39 4 28 -2 65 65 W 22 35 29.94 1014 10 16 N/A
12:34 pm 12:34 Sunny 39 4 28 -2 65 65 W 21 33 29.94 1014 10 16 N/A
12:55 pm 12:55 Partly Cloudy 39 4 28 -2 65 65 WSW 22 35 29.94 1014 10 16 N/A
1:14 pm 13:14 Partly Cloudy 39 4 28 -2 65 65 W 23 37 29.94 1014 10 16 N/A
1:34 pm 13:34 Sunny 39 4 28 -2 65 65 WSW 23 37 29.94 1014 10 16 N/A
1:55 pm 13:55 Partly Cloudy 37 3 28 -2 70 70 W 21 33 29.94 1014 10 16 N/A
2:14 pm 14:14 Partly Cloudy 39 4 27 -3 61 61 W 24 39 29.94 1014 10 16 N/A
2:34 pm 14:34 Partly Cloudy 39 4 27 -3 61 61 W 22 35 29.94 1014 10 16 N/A
2:54 pm 14:54 Cloudy 37 3 27 -3 65 65 W 24 39 29.94 1014 10 16 N/A
3:13 pm 15:13 Cloudy 37 3 27 -3 65 65 W 28 44 29.94 1014 10 16 N/A
3:35 pm 15:35 Cloudy 36 2 27 -3 70 70 W 21 33 30.00 1016 10 16 N/A
3:54 pm 15:54 Cloudy 36 2 27 -3 70 70 W 23 37 30.00 1016 10 16 N/A
4:15 pm 16:15 Cloudy 36 2 25 -4 65 65 W 24 39 30.00 1016 10 16 N/A
4:34 pm 16:34 Cloudy 36 2 23 -5 60 60 WNW 26 43 30.03 1017 10 16 N/A
4:54 pm 16:54 Cloudy 36 2 23 -5 60 60 W 22 35 30.03 1017 10 16 N/A
5:15 pm 17:15 Cloudy 34 1 25 -4 70 70 W 20 31 30.03 1017 10 16 N/A
5:34 pm 17:34 Cloudy 34 1 25 -4 70 70 W 16 26 30.03 1017 10 16 N/A
5:55 pm 17:55 Cloudy 34 1 25 -4 70 70 W 23 37 30.03 1017 10 16 N/A
6:14 pm 18:14 Cloudy 34 1 25 -4 70 70 W 28 44 30.03 1017 10 16 N/A
6:34 pm 18:34 Cloudy 34 1 27 -3 75 75 W 21 33 30.03 1017 10 16 N/A
6:55 pm 18:55 Cloudy 34 1 25 -4 70 70 WNW 22 35 30.03 1017 10 16 N/A
7:14 pm 19:14 Cloudy 34 1 23 -5 65 65 WNW 25 41 30.03 1017 10 16 N/A
7:35 pm 19:35 Cloudy 34 1 25 -4 70 70 WNW 20 31 30.06 1018 10 16 N/A
7:54 pm 19:54 Cloudy 34 1 25 -4 70 70 WNW 20 31 30.06 1018 10 16 N/A
8:14 pm 20:14 Cloudy 34 1 25 -4 70 70 WNW 20 31 30.03 1017 10 16 N/A
8:35 pm 20:35 Cloudy 32 undefined 25 -4 75 75 WNW 24 39 30.03 1017 10 16 N/A
8:54 pm 20:54 Cloudy 34 1 25 -4 70 70 WNW 21 33 30.03 1017 10 16 N/A
9:14 pm 21:14 Cloudy 34 1 25 -4 70 70 WNW 20 31 30.03 1017 10 16 N/A
9:35 pm 21:35 Cloudy 34 1 25 -4 70 70 WNW 21 33 30.06 1018 10 16 N/A
9:54 pm 21:54 Cloudy 34 1 23 -5 65 65 WNW 21 33 30.03 1017 10 16 N/A
10:15 pm 22:15 Cloudy 32 undefined 23 -5 69 69 WNW 21 33 30.06 1018 10 16 N/A
10:34 pm 22:34 Cloudy 32 undefined 25 -4 75 75 WNW 16 26 30.06 1018 10 16 N/A
10:54 pm 22:54 Cloudy 32 undefined 25 -4 75 75 WNW 21 33 30.06 1018 10 16 N/A
11:15 pm 23:15 Cloudy 32 undefined 23 -5 69 69 WNW 17 28 30.03 1017 10 16 N/A
11:34 pm 23:34 Cloudy 32 undefined 25 -4 75 75 WNW 20 31 30.06 1018 10 16 N/A
11:54 pm 23:54 Cloudy 32 undefined 23 -5 69 69 WNW 20 31 30.06 1018 10 16 N/A

Powered by AerisWeather